Location: Seminole
(32.7190°N, 102.6440°W)
Time: 02:39:26
(UTC-06:00)

Meteor 2-10 - Visible Passes

Search period start: 01 February 2015 00:00
Search period end: 11 February 2015 00:00
Orbit: 739 x 869 km, 81.2° (Epoch: 31 January)

Date Brightness Start Highest point End Pass type
(mag) Time Alt. Az. Time Alt. Az. Time Alt. Az.
01 Feb 6.8 06:49:32 10° SE 06:53:10 21° E 06:57:00 10° NE visible
01 Feb 4.5 19:06:53 10° NNW 19:12:25 72° W 19:18:04 10° S visible
02 Feb 7.1 06:25:08 10° ESE 06:27:23 13° E 06:29:55 10° ENE visible
02 Feb 4.2 18:40:57 10° N 18:46:32 77° E 18:52:14 10° SSE visible
03 Feb 7.2 19:58:44 10° NW 20:02:12 16° W 20:05:25 10° SW visible
04 Feb 4.4 07:12:04 10° S 07:17:03 70° E 07:22:09 10° NNE visible
04 Feb 6.7 19:31:54 10° NW 19:36:24 24° W 19:40:49 10° SW visible
05 Feb 5.3 06:46:27 10° SSE 06:51:11 44° E 06:56:03 10° NNE visible
05 Feb 6.0 19:05:28 10° NNW 19:10:36 36° W 19:15:43 10° SSW visible
06 Feb 6.1 06:21:08 10° SSE 06:25:21 28° E 06:29:44 10° NNE visible
07 Feb 6.8 05:56:14 10° SE 05:59:33 18° E 06:03:07 10° NE visible
08 Feb 7.3 05:32:16 10° ESE 05:33:46 12° E 05:35:38 10° ENE visible
08 Feb 4.1 07:10:16 10° SSW 07:15:13 56° W 07:20:19 10° N visible
08 Feb 7.5 19:32:10 10° WNW 19:34:28 12° W 19:36:22 10° WSW visible
09 Feb 3.9 06:44:13 10° S 06:49:16 87° W 06:54:30 10° N visible
09 Feb 7.1 19:04:44 10° NW 19:08:42 19° W 19:12:26 10° SW visible
10 Feb 4.6 06:18:26 10° S 06:23:23 60° E 06:28:31 10° NNE visible
